Time,TemperatureF,DewpointF,PressureIn,WindDirection,WindDirectionDegrees,WindSpeedMPH,WindSpeedGustMPH,Humidity,HourlyPrecipIn,Conditions,Clouds,dailyrainin,SoftwareType,DateUTC
2013-05-28 00:01:00,50.2,44.6,30.17,NNW,342,0.0,0.0,81,0.00,,---,0.00,VWS V14.01,2013-05-28 04:01:00,
2013-05-28 00:02:00,50.2,44.6,30.17,NNW,342,0.0,0.0,81,0.00,,---,0.00,VWS V14.01,2013-05-28 04:02:00,
2013-05-28 00:03:00,50.2,44.6,30.17,NNW,342,0.0,0.0,81,0.00,,---,0.00,VWS V14.01,2013-05-28 04:03:00,
2013-05-28 00:04:00,50.1,44.5,30.17,NNW,342,0.0,0.0,81,0.00,,---,0.00,VWS V14.01,2013-05-28 04:04:00,
2013-05-28 00:05:00,50.1,44.5,30.17,NNW,342,0.0,0.0,81,0.00,,---,0.00,VWS V14.01,2013-05-28 04:05:00,
2013-05-28 00:11:00,50.1,44.8,30.17,NNW,342,0.0,0.0,82,0.00,,---,0.00,VWS V14.01,2013-05-28 04:11:00,
2013-05-28 00:17:00,50.1,44.8,30.17,NNW,342,0.0,0.0,82,0.00,,---,0.00,VWS V14.01,2013-05-28 04:17:00,
2013-05-28 00:22:00,49.9,44.6,30.18,NNW,342,0.0,0.0,82,0.00,,---,0.00,VWS V14.01,2013-05-28 04:22:00,
2013-05-28 00:28:00,49.6,44.3,30.18,NNW,342,0.0,0.0,82,0.00,,---,0.00,VWS V14.01,2013-05-28 04:28:00,
2013-05-28 00:33:00,49.5,44.6,30.19,NNW,342,0.0,0.0,83,0.00,,---,0.00,VWS V14.01,2013-05-28 04:33:00,
2013-05-28 00:39:00,49.2,44.3,30.19,NNW,342,0.0,0.0,83,0.00,,---,0.00,VWS V14.01,2013-05-28 04:39:00,
2013-05-28 00:44:00,49.2,44.6,30.19,NNW,342,0.0,0.0,84,0.00,,---,0.00,VWS V14.01,2013-05-28 04:44:00,
2013-05-28 00:50:00,49.1,44.8,30.19,NNW,342,0.0,0.0,85,0.00,,---,0.00,VWS V14.01,2013-05-28 04:50:00,
2013-05-28 00:56:00,49.1,44.8,30.19,NNW,342,0.0,0.0,85,0.00,,---,0.00,VWS V14.01,2013-05-28 04:56:00,
2013-05-28 01:02:00,48.9,44.6,30.19,NNW,342,0.0,0.0,85,0.00,,---,0.00,VWS V14.01,2013-05-28 05:02:00,
2013-05-28 01:07:00,48.9,44.6,30.19,NNW,342,0.0,0.0,85,0.00,,---,0.00,VWS V14.01,2013-05-28 05:07:00,
2013-05-28 01:12:00,48.8,44.5,30.19,NNW,342,0.0,0.0,85,0.00,,---,0.00,VWS V14.01,2013-05-28 05:12:00,
2013-05-28 01:17:00,48.3,43.7,30.19,NNW,342,0.0,0.0,84,0.00,,---,0.00,VWS V14.01,2013-05-28 05:17:00,
2013-05-28 01:22:00,48.0,43.4,30.20,NNW,342,0.0,0.0,84,0.00,,---,0.00,VWS V14.01,2013-05-28 05:22:00,
2013-05-28 01:28:00,47.9,43.6,30.19,NNW,342,0.0,0.0,85,0.00,,---,0.00,VWS V14.01,2013-05-28 05:28:00,
2013-05-28 01:34:00,47.7,43.7,30.19,NNW,342,0.0,0.0,86,0.00,,---,0.00,VWS V14.01,2013-05-28 05:34:00,
2013-05-28 01:39:00,47.7,43.7,30.19,NNW,342,0.0,0.0,86,0.00,,---,0.00,VWS V14.01,2013-05-28 05:39:00,
2013-05-28 01:45:00,47.6,43.6,30.19,NNW,342,0.0,0.0,86,0.00,,---,0.00,VWS V14.01,2013-05-28 05:45:00,
2013-05-28 01:50:00,47.4,43.4,30.19,NNW,342,0.0,0.0,86,0.00,,---,0.00,VWS V14.01,2013-05-28 05:50:00,
2013-05-28 01:55:00,47.4,43.7,30.19,NNW,342,0.0,0.0,87,0.00,,---,0.00,VWS V14.01,2013-05-28 05:55:00,
2013-05-28 02:00:00,47.4,43.7,30.20,NNW,342,0.0,0.0,87,0.00,,---,0.00,VWS V14.01,2013-05-28 06:00:00,
2013-05-28 02:06:00,47.3,43.6,30.20,NNW,342,0.0,0.0,87,0.00,,---,0.00,VWS V14.01,2013-05-28 06:06:00,
2013-05-28 02:11:00,47.0,43.3,30.20,NNW,342,0.0,0.0,87,0.00,,---,0.00,VWS V14.01,2013-05-28 06:11:00,
2013-05-28 02:16:00,46.8,43.1,30.20,NNW,342,0.0,0.0,87,0.00,,---,0.00,VWS V14.01,2013-05-28 06:16:00,
2013-05-28 02:22:00,46.8,43.7,30.19,NNW,342,0.0,0.0,89,0.00,,---,0.00,VWS V14.01,2013-05-28 06:22:00,
2013-05-28 02:27:00,46.7,43.6,30.19,NNW,342,0.0,0.0,89,0.00,,---,0.00,VWS V14.01,2013-05-28 06:27:00,
2013-05-28 02:32:00,46.4,43.0,30.19,NNW,342,0.0,0.0,88,0.00,,---,0.00,VWS V14.01,2013-05-28 06:32:00,
2013-05-28 02:38:00,46.1,42.5,30.19,NNW,342,0.0,0.0,87,0.00,,---,0.00,VWS V14.01,2013-05-28 06:38:00,
2013-05-28 02:43:00,45.8,42.2,30.19,NNW,342,0.0,0.0,87,0.00,,---,0.00,VWS V14.01,2013-05-28 06:43:00,
2013-05-28 02:48:00,45.7,42.1,30.19,NNW,342,0.0,0.0,87,0.00,,---,0.00,VWS V14.01,2013-05-28 06:48:00,
2013-05-28 02:53:00,45.5,42.2,30.19,NNW,342,0.0,0.0,88,0.00,,---,0.00,VWS V14.01,2013-05-28 06:53:00,
2013-05-28 02:58:00,45.4,42.1,30.19,NNW,342,0.0,0.0,88,0.00,,---,0.00,VWS V14.01,2013-05-28 06:58:00,
2013-05-28 03:03:00,45.4,42.1,30.19,NNW,342,0.0,0.0,88,0.00,,---,0.00,VWS V14.01,2013-05-28 07:03:00,
2013-05-28 03:08:00,45.2,42.2,30.19,NNW,342,0.0,0.0,89,0.00,,---,0.00,VWS V14.01,2013-05-28 07:08:00,
2013-05-28 03:14:00,45.2,42.2,30.19,NNW,342,0.0,0.0,89,0.00,,---,0.00,VWS V14.01,2013-05-28 07:14:00,
2013-05-28 03:19:00,45.2,42.2,30.19,NNW,342,0.0,0.0,89,0.00,,---,0.00,VWS V14.01,2013-05-28 07:19:00,
2013-05-28 03:24:00,45.2,42.2,30.18,NNW,342,0.0,0.0,89,0.00,,---,0.00,VWS V14.01,2013-05-28 07:24:00,
2013-05-28 03:29:00,45.4,42.6,30.19,NNW,342,0.0,0.0,90,0.00,,---,0.00,VWS V14.01,2013-05-28 07:29:00,
2013-05-28 03:34:00,45.2,42.5,30.18,NNW,342,0.0,0.0,90,0.00,,---,0.00,VWS V14.01,2013-05-28 07:34:00,
2013-05-28 03:39:00,45.1,42.3,30.19,NNW,342,0.0,0.0,90,0.00,,---,0.00,VWS V14.01,2013-05-28 07:39:00,
2013-05-28 03:44:00,44.8,41.8,30.19,NNW,342,0.0,0.0,89,0.00,,---,0.00,VWS V14.01,2013-05-28 07:44:00,
2013-05-28 03:49:00,44.6,41.6,30.19,NNW,342,0.0,0.0,89,0.00,,---,0.00,VWS V14.01,2013-05-28 07:49:00,
2013-05-28 03:54:00,44.3,41.3,30.19,NNW,342,0.0,0.0,89,0.00,,---,0.00,VWS V14.01,2013-05-28 07:54:00,
2013-05-28 03:59:00,44.2,41.5,30.19,NNW,342,0.0,0.0,90,0.00,,---,0.00,VWS V14.01,2013-05-28 07:59:00,
2013-05-28 04:04:00,44.1,41.4,30.19,NNW,342,0.0,0.0,90,0.00,,---,0.00,VWS V14.01,2013-05-28 08:04:00,
2013-05-28 04:09:00,44.1,41.4,30.19,NNW,342,0.0,0.0,90,0.00,,---,0.00,VWS V14.01,2013-05-28 08:09:00,
2013-05-28 04:15:00,43.9,41.2,30.19,NNW,342,0.0,0.0,90,0.00,,---,0.00,VWS V14.01,2013-05-28 08:15:00,
2013-05-28 04:20:00,43.9,41.2,30.19,NNW,342,0.0,0.0,90,0.00,,---,0.00,VWS V14.01,2013-05-28 08:20:00,
2013-05-28 04:25:00,43.9,41.2,30.19,NNW,342,0.0,0.0,90,0.00,,---,0.00,VWS V14.01,2013-05-28 08:25:00,
2013-05-28 04:30:00,44.1,41.7,30.19,NNW,342,0.0,0.0,91,0.00,,---,0.00,VWS V14.01,2013-05-28 08:30:00,
2013-05-28 04:35:00,44.2,41.7,30.19,NNW,342,0.0,0.0,91,0.00,,---,0.00,VWS V14.01,2013-05-28 08:35:00,
2013-05-28 04:40:00,44.1,41.7,30.19,NNW,342,0.0,0.0,91,0.00,,---,0.00,VWS V14.01,2013-05-28 08:40:00,
2013-05-28 04:45:00,44.1,41.7,30.19,NNW,342,0.0,0.0,91,0.00,,---,0.00,VWS V14.01,2013-05-28 08:45:00,
2013-05-28 04:50:00,44.1,41.7,30.19,NNW,342,0.0,0.0,91,0.00,,---,0.00,VWS V14.01,2013-05-28 08:50:00,
2013-05-28 04:56:00,43.9,41.5,30.19,NNW,342,0.0,0.0,91,0.00,,---,0.00,VWS V14.01,2013-05-28 08:56:00,
2013-05-28 05:01:00,43.8,41.3,30.19,NNW,342,0.0,0.0,91,0.00,,---,0.00,VWS V14.01,2013-05-28 09:01:00,
2013-05-28 05:06:00,43.6,40.9,30.19,NNW,342,0.0,0.0,90,0.00,,---,0.00,VWS V14.01,2013-05-28 09:06:00,
2013-05-28 05:12:00,43.3,40.8,30.19,NNW,342,0.0,0.0,91,0.00,,---,0.00,VWS V14.01,2013-05-28 09:12:00,
2013-05-28 05:17:00,43.3,40.8,30.19,NNW,342,0.0,0.0,91,0.00,,---,0.00,VWS V14.01,2013-05-28 09:17:00,
2013-05-28 05:22:00,43.2,40.8,30.19,NNW,342,0.0,0.0,91,0.00,,---,0.00,VWS V14.01,2013-05-28 09:22:00,
2013-05-28 05:27:00,43.1,40.7,30.19,NNW,342,0.0,0.0,91,0.00,,---,0.00,VWS V14.01,2013-05-28 09:27:00,
2013-05-28 05:33:00,43.1,40.7,30.20,NNW,342,0.0,0.0,91,0.00,,---,0.00,VWS V14.01,2013-05-28 09:33:00,
2013-05-28 05:38:00,43.1,40.7,30.20,NNW,342,0.0,0.0,91,0.00,,---,0.00,VWS V14.01,2013-05-28 09:38:00,
2013-05-28 05:43:00,43.1,40.9,30.20,NNW,342,0.0,0.0,92,0.00,,---,0.00,VWS V14.01,2013-05-28 09:43:00,
2013-05-28 05:48:00,43.2,41.0,30.20,NNW,342,0.0,0.0,92,0.00,,---,0.00,VWS V14.01,2013-05-28 09:48:00,
2013-05-28 05:53:00,43.2,41.0,30.20,NNW,342,0.0,0.0,92,0.00,,---,0.00,VWS V14.01,2013-05-28 09:53:00,
2013-05-28 05:58:00,43.2,41.0,30.21,NNW,342,0.0,0.0,92,0.00,,---,0.00,VWS V14.01,2013-05-28 09:58:00,
2013-05-28 06:03:00,43.2,41.0,30.20,NNW,342,0.0,0.0,92,0.00,,---,0.00,VWS V14.01,2013-05-28 10:03:00,
2013-05-28 06:08:00,43.2,41.0,30.20,NNW,342,0.0,0.0,92,0.00,,---,0.00,VWS V14.01,2013-05-28 10:08:00,
2013-05-28 06:13:00,43.3,41.1,30.20,NNW,342,0.0,0.0,92,0.00,,---,0.00,VWS V14.01,2013-05-28 10:13:00,
2013-05-28 06:18:00,43.5,41.3,30.20,NNW,342,0.0,0.0,92,0.00,,---,0.00,VWS V14.01,2013-05-28 10:18:00,
2013-05-28 06:23:00,43.6,41.7,30.20,NNW,342,0.0,0.0,93,0.00,,---,0.00,VWS V14.01,2013-05-28 10:23:00,
2013-05-28 06:28:00,43.6,41.4,30.20,NNW,342,0.0,0.0,92,0.00,,---,0.00,VWS V14.01,2013-05-28 10:28:00,
2013-05-28 06:33:00,43.6,41.4,30.21,NNW,342,0.0,0.0,92,0.00,,---,0.00,VWS V14.01,2013-05-28 10:33:00,
2013-05-28 06:38:00,43.6,41.4,30.21,NNW,342,0.0,0.0,92,0.00,,---,0.00,VWS V14.01,2013-05-28 10:38:00,
2013-05-28 06:43:00,43.8,41.9,30.21,NNW,342,0.0,0.0,93,0.00,,---,0.00,VWS V14.01,2013-05-28 10:43:00,
2013-05-28 06:48:00,43.8,41.6,30.22,NNW,342,0.0,0.0,92,0.00,,---,0.00,VWS V14.01,2013-05-28 10:48:00,
2013-05-28 06:53:00,43.8,41.6,30.22,NNW,342,0.0,0.0,92,0.00,,---,0.00,VWS V14.01,2013-05-28 10:53:00,
2013-05-28 06:58:00,43.8,41.6,30.22,NNW,342,0.0,0.0,92,0.00,,---,0.00,VWS V14.01,2013-05-28 10:58:00,
2013-05-28 07:04:00,43.9,42.0,30.21,NNW,342,0.0,0.0,93,0.00,,---,0.00,VWS V14.01,2013-05-28 11:04:00,
2013-05-28 07:09:00,44.2,42.3,30.21,NNW,342,0.0,0.0,93,0.00,,---,0.00,VWS V14.01,2013-05-28 11:09:00,
2013-05-28 07:15:00,44.3,42.4,30.21,NNW,342,0.0,0.0,93,0.00,,---,0.00,VWS V14.01,2013-05-28 11:15:00,
2013-05-28 07:20:00,44.5,42.6,30.21,NNW,342,0.0,0.0,93,0.00,,---,0.00,VWS V14.01,2013-05-28 11:20:00,
2013-05-28 07:25:00,44.6,42.4,30.21,NNW,342,0.0,0.0,92,0.00,,---,0.00,VWS V14.01,2013-05-28 11:25:00,
2013-05-28 07:30:00,44.9,43.0,30.21,NNW,342,0.0,0.0,93,0.00,,---,0.00,VWS V14.01,2013-05-28 11:30:00,
2013-05-28 07:35:00,45.1,43.2,30.21,NNW,342,0.0,0.0,93,0.00,,---,0.00,VWS V14.01,2013-05-28 11:35:00,
2013-05-28 07:40:00,45.2,43.3,30.21,NNW,342,0.0,0.0,93,0.00,,---,0.00,VWS V14.01,2013-05-28 11:40:00,
2013-05-28 07:45:00,45.5,43.6,30.21,NNW,342,0.0,0.0,93,0.00,,---,0.00,VWS V14.01,2013-05-28 11:45:00,
2013-05-28 07:50:00,45.8,43.9,30.21,NNW,342,0.0,0.0,93,0.00,,---,0.00,VWS V14.01,2013-05-28 11:50:00,
2013-05-28 07:56:00,46.2,44.0,30.21,NNW,342,0.0,0.0,92,0.00,,---,0.00,VWS V14.01,2013-05-28 11:56:00,
2013-05-28 08:01:00,46.7,44.5,30.22,NNW,342,0.0,0.0,92,0.00,,---,0.00,VWS V14.01,2013-05-28 12:01:00,
2013-05-28 08:06:00,47.0,44.8,30.22,NNW,342,0.0,0.0,92,0.00,,---,0.00,VWS V14.01,2013-05-28 12:06:00,
2013-05-28 08:11:00,47.4,44.9,30.22,NNW,342,0.0,0.0,91,0.00,,---,0.00,VWS V14.01,2013-05-28 12:11:00,
2013-05-28 08:16:00,47.9,44.8,30.22,NNW,342,0.0,1.0,89,0.00,,---,0.00,VWS V14.01,2013-05-28 12:16:00,
2013-05-28 08:21:00,48.5,44.8,30.22,North,10,0.0,0.0,87,0.00,,---,0.00,VWS V14.01,2013-05-28 12:21:00,
2013-05-28 08:26:00,49.1,45.1,30.22,NNE,28,0.0,0.0,86,0.00,,---,0.00,VWS V14.01,2013-05-28 12:26:00,
2013-05-28 08:32:00,49.9,45.3,30.22,NNE,29,0.0,1.0,84,0.00,,---,0.00,VWS V14.01,2013-05-28 12:32:00,
2013-05-28 08:37:00,50.5,44.9,30.22,NNE,16,0.0,1.0,81,0.00,,---,0.00,VWS V14.01,2013-05-28 12:37:00,
2013-05-28 08:42:00,51.3,45.0,30.22,NNE,15,0.0,0.0,79,0.00,,---,0.00,VWS V14.01,2013-05-28 12:42:00,
2013-05-28 08:47:00,51.9,45.3,30.22,NNE,15,0.0,0.0,78,0.00,,---,0.00,VWS V14.01,2013-05-28 12:47:00,
2013-05-28 08:52:00,52.5,45.5,30.22,NNE,15,0.0,0.0,77,0.00,,---,0.00,VWS V14.01,2013-05-28 12:52:00,
2013-05-28 08:58:00,53.2,46.2,30.21,NNE,15,0.0,0.0,77,0.00,,---,0.00,VWS V14.01,2013-05-28 12:58:00,
2013-05-28 09:04:00,54.1,47.1,30.21,NNE,15,0.0,0.0,77,0.00,,---,0.00,VWS V14.01,2013-05-28 13:04:00,
2013-05-28 09:09:00,55.1,47.7,30.21,NNE,15,0.0,0.0,76,0.00,,---,0.00,VWS V14.01,2013-05-28 13:09:00,
2013-05-28 09:14:00,56.0,48.2,30.21,NNE,15,0.0,0.0,75,0.00,,---,0.00,VWS V14.01,2013-05-28 13:14:00,
2013-05-28 09:19:00,56.9,49.1,30.21,NNE,15,0.0,0.0,75,0.00,,---,0.00,VWS V14.01,2013-05-28 13:19:00,
2013-05-28 09:24:00,57.5,48.9,30.21,NNE,15,0.0,0.0,73,0.00,,---,0.00,VWS V14.01,2013-05-28 13:24:00,
2013-05-28 09:29:00,58.4,48.3,30.21,NNE,15,0.0,0.0,69,0.00,,---,0.00,VWS V14.01,2013-05-28 13:29:00,
2013-05-28 09:34:00,59.0,48.5,30.21,NNE,15,0.0,0.0,68,0.00,,---,0.00,VWS V14.01,2013-05-28 13:34:00,
2013-05-28 09:40:00,60.2,48.8,30.21,NNE,15,0.0,0.0,66,0.00,,---,0.00,VWS V14.01,2013-05-28 13:40:00,
2013-05-28 09:46:00,61.3,46.9,30.21,NNE,15,0.0,0.0,59,0.00,,---,0.00,VWS V14.01,2013-05-28 13:46:00,
2013-05-28 09:51:00,62.1,43.3,30.21,ESE,120,0.0,3.0,50,0.00,,---,0.00,VWS V14.01,2013-05-28 13:51:00,
2013-05-28 09:57:00,63.4,44.5,30.21,ENE,63,0.0,1.0,50,0.00,,---,0.00,VWS V14.01,2013-05-28 13:57:00,
2013-05-28 10:02:00,64.3,46.8,30.21,ENE,67,0.0,0.0,53,0.00,,---,0.00,VWS V14.01,2013-05-28 14:02:00,
2013-05-28 10:08:00,65.2,46.6,30.21,SSE,155,0.0,2.0,51,0.00,,---,0.00,VWS V14.01,2013-05-28 14:08:00,
2013-05-28 10:14:00,66.0,47.9,30.21,ESE,104,0.0,0.0,52,0.00,,---,0.00,VWS V14.01,2013-05-28 14:14:00,
2013-05-28 10:19:00,66.3,44.3,30.21,SE,128,0.0,1.0,45,0.00,,---,0.00,VWS V14.01,2013-05-28 14:19:00,
2013-05-28 10:24:00,66.6,44.0,30.21,South,181,0.0,1.0,44,0.00,,---,0.00,VWS V14.01,2013-05-28 14:24:00,
2013-05-28 10:30:00,66.9,42.5,30.21,South,181,0.0,0.0,41,0.00,,---,0.00,VWS V14.01,2013-05-28 14:30:00,
2013-05-28 10:35:00,67.3,46.4,30.21,South,179,0.0,0.0,47,0.00,,---,0.00,VWS V14.01,2013-05-28 14:35:00,
2013-05-28 10:40:00,67.4,43.5,30.21,WSW,241,0.0,1.0,42,0.00,,---,0.00,VWS V14.01,2013-05-28 14:40:00,
2013-05-28 10:45:00,67.6,44.3,30.22,WSW,241,0.0,0.0,43,0.00,,---,0.00,VWS V14.01,2013-05-28 14:45:00,
2013-05-28 10:50:00,67.4,42.9,30.21,South,173,0.0,0.0,41,0.00,,---,0.00,VWS V14.01,2013-05-28 14:50:00,
2013-05-28 10:55:00,67.3,44.1,30.22,South,173,0.0,2.0,43,0.00,,---,0.00,VWS V14.01,2013-05-28 14:55:00,
2013-05-28 11:00:00,67.3,43.5,30.22,South,173,0.0,0.0,42,0.00,,---,0.00,VWS V14.01,2013-05-28 15:00:00,
2013-05-28 11:06:00,67.3,44.1,30.22,South,173,0.0,0.0,43,0.00,,---,0.00,VWS V14.01,2013-05-28 15:06:00,
2013-05-28 11:11:00,67.4,45.3,30.21,South,173,0.0,0.0,45,0.00,,---,0.00,VWS V14.01,2013-05-28 15:11:00,
2013-05-28 11:17:00,67.6,44.9,30.21,South,173,0.0,0.0,44,0.00,,---,0.00,VWS V14.01,2013-05-28 15:17:00,
2013-05-28 11:22:00,67.6,43.1,30.21,ESE,111,0.0,1.0,41,0.00,,---,0.00,VWS V14.01,2013-05-28 15:22:00,
2013-05-28 11:28:00,67.8,43.9,30.21,ESE,111,0.0,0.0,42,0.00,,---,0.00,VWS V14.01,2013-05-28 15:28:00,
2013-05-28 11:33:00,67.9,45.2,30.21,ESE,107,0.0,1.0,44,0.00,,---,0.00,VWS V14.01,2013-05-28 15:33:00,
2013-05-28 11:38:00,67.9,44.6,30.21,SSE,158,0.0,0.0,43,0.00,,---,0.00,VWS V14.01,2013-05-28 15:38:00,
2013-05-28 11:43:00,68.1,44.8,30.21,SSE,158,0.0,4.0,43,0.00,,---,0.00,VWS V14.01,2013-05-28 15:43:00,
2013-05-28 11:48:00,68.3,43.7,30.21,SE,134,0.0,1.0,41,0.00,,---,0.00,VWS V14.01,2013-05-28 15:48:00,
2013-05-28 11:53:00,68.3,45.0,30.21,SE,134,0.0,0.0,43,0.00,,---,0.00,VWS V14.01,2013-05-28 15:53:00,
2013-05-28 11:59:00,68.6,44.6,30.21,NNE,30,0.0,1.0,42,0.00,,---,0.00,VWS V14.01,2013-05-28 15:59:00,
2013-05-28 12:04:00,68.8,46.0,30.21,West,271,0.0,1.0,44,0.00,,---,0.00,VWS V14.01,2013-05-28 16:04:00,
2013-05-28 12:09:00,68.8,44.2,30.21,NNE,28,0.0,1.0,41,0.00,,---,0.00,VWS V14.01,2013-05-28 16:09:00,
2013-05-28 12:15:00,68.9,43.0,30.21,NE,35,0.0,3.0,39,0.00,,---,0.00,VWS V14.01,2013-05-28 16:15:00,
2013-05-28 12:21:00,68.9,45.5,30.21,SE,126,0.0,0.0,43,0.00,,---,0.00,VWS V14.01,2013-05-28 16:21:00,
2013-05-28 12:26:00,68.9,44.2,30.21,WSW,242,0.0,1.0,41,0.00,,---,0.00,VWS V14.01,2013-05-28 16:26:00,
2013-05-28 12:32:00,68.8,44.8,30.21,SW,234,0.0,0.0,42,0.00,,---,0.00,VWS V14.01,2013-05-28 16:32:00,
2013-05-28 12:40:00,68.6,44.6,30.20,SSE,167,0.0,1.0,42,0.00,,---,0.00,VWS V14.01,2013-05-28 16:40:00,
2013-05-28 12:46:00,68.4,45.7,30.20,SSE,168,0.0,0.0,44,0.00,,---,0.00,VWS V14.01,2013-05-28 16:46:00,
2013-05-28 12:51:00,68.4,46.2,30.20,SSE,168,0.0,0.0,45,0.00,,---,0.00,VWS V14.01,2013-05-28 16:51:00,
2013-05-28 12:57:00,68.3,45.0,30.20,West,275,0.0,1.0,43,0.00,,---,0.00,VWS V14.01,2013-05-28 16:57:00,
2013-05-28 13:02:00,68.3,47.9,30.20,West,275,0.0,0.0,48,0.00,,---,0.00,VWS V14.01,2013-05-28 17:02:00,
2013-05-28 13:07:00,67.9,45.8,30.20,West,275,0.0,0.0,45,0.00,,---,0.00,VWS V14.01,2013-05-28 17:07:00,
2013-05-28 13:12:00,67.8,45.7,30.20,NE,42,0.0,0.0,45,0.00,,---,0.00,VWS V14.01,2013-05-28 17:12:00,
2013-05-28 13:18:00,67.6,46.7,30.20,WSW,242,0.0,0.0,47,0.00,,---,0.00,VWS V14.01,2013-05-28 17:18:00,
2013-05-28 13:23:00,67.6,48.3,30.19,WSW,242,0.0,0.0,50,0.00,,---,0.00,VWS V14.01,2013-05-28 17:23:00,
2013-05-28 13:28:00,67.4,48.1,30.19,WSW,242,0.0,0.0,50,0.00,,---,0.00,VWS V14.01,2013-05-28 17:28:00,
2013-05-28 13:34:00,67.3,46.4,30.19,SW,228,0.0,2.0,47,0.00,,---,0.00,VWS V14.01,2013-05-28 17:34:00,
2013-05-28 13:40:00,67.1,46.8,30.19,NW,311,0.0,0.0,48,0.00,,---,0.00,VWS V14.01,2013-05-28 17:40:00,
2013-05-28 13:45:00,66.9,47.7,30.19,SE,142,2.0,3.0,50,0.00,,---,0.00,VWS V14.01,2013-05-28 17:45:00,
2013-05-28 13:50:00,66.9,46.0,30.19,WNW,285,0.0,1.0,47,0.00,,---,0.00,VWS V14.01,2013-05-28 17:50:00,
2013-05-28 13:55:00,66.8,48.1,30.19,WSW,248,0.0,0.0,51,0.00,,---,0.00,VWS V14.01,2013-05-28 17:55:00,
2013-05-28 14:00:00,66.6,47.9,30.19,SSE,148,0.0,1.0,51,0.00,,---,0.00,VWS V14.01,2013-05-28 18:00:00,
2013-05-28 14:06:00,66.3,47.7,30.19,SW,225,2.0,3.0,51,0.00,,---,0.00,VWS V14.01,2013-05-28 18:06:00,
2013-05-28 14:11:00,65.8,47.7,30.20,West,272,1.0,3.0,52,0.00,,---,0.00,VWS V14.01,2013-05-28 18:11:00,
2013-05-28 14:16:00,65.3,48.7,30.20,WNW,290,0.0,1.0,55,0.00,,---,0.00,VWS V14.01,2013-05-28 18:16:00,
2013-05-28 14:21:00,64.8,47.8,30.20,SW,231,0.0,2.0,54,0.00,,---,0.00,VWS V14.01,2013-05-28 18:21:00,
2013-05-28 14:26:00,64.2,48.7,30.20,West,259,0.0,2.0,57,0.00,,---,0.00,VWS V14.01,2013-05-28 18:26:00,
2013-05-28 14:31:00,63.7,48.7,30.20,West,259,0.0,0.0,58,0.00,,---,0.00,VWS V14.01,2013-05-28 18:31:00,
2013-05-28 14:36:00,63.1,50.3,30.20,NE,47,0.0,0.0,63,0.00,,---,0.00,VWS V14.01,2013-05-28 18:36:00,
2013-05-28 14:41:00,62.4,50.1,30.20,West,281,0.0,2.0,64,0.00,,---,0.00,VWS V14.01,2013-05-28 18:41:00,
2013-05-28 14:46:00,62.0,51.3,30.20,West,281,0.0,0.0,68,0.00,,---,0.00,VWS V14.01,2013-05-28 18:46:00,
2013-05-28 14:51:00,61.5,52.4,30.20,West,281,0.0,0.0,72,0.01,,---,0.01,VWS V14.01,2013-05-28 18:51:00,
2013-05-28 14:56:00,61.3,52.6,30.20,West,281,0.0,0.0,73,0.01,,---,0.01,VWS V14.01,2013-05-28 18:56:00,
2013-05-28 15:01:00,61.0,52.7,30.20,West,281,0.0,0.0,74,0.01,,---,0.01,VWS V14.01,2013-05-28 19:01:00,
2013-05-28 15:07:00,60.7,53.5,30.20,West,281,0.0,0.0,77,0.02,,---,0.02,VWS V14.01,2013-05-28 19:07:00,
2013-05-28 15:12:00,60.4,53.5,30.20,West,281,0.0,0.0,78,0.02,,---,0.02,VWS V14.01,2013-05-28 19:12:00,
2013-05-28 15:18:00,60.2,54.0,30.20,West,281,0.0,0.0,80,0.02,,---,0.02,VWS V14.01,2013-05-28 19:18:00,
2013-05-28 15:23:00,59.9,54.1,30.20,West,281,0.0,0.0,81,0.03,,---,0.03,VWS V14.01,2013-05-28 19:23:00,
2013-05-28 15:28:00,59.8,54.6,30.20,West,281,0.0,0.0,83,0.03,,---,0.03,VWS V14.01,2013-05-28 19:28:00,
2013-05-28 15:33:00,59.5,54.3,30.20,West,281,0.0,0.0,83,0.04,,---,0.04,VWS V14.01,2013-05-28 19:33:00,
2013-05-28 15:39:00,59.2,54.7,30.20,West,281,0.0,0.0,85,0.05,,---,0.05,VWS V14.01,2013-05-28 19:39:00,
2013-05-28 15:44:00,58.9,54.7,30.20,West,281,0.0,0.0,86,0.06,,---,0.06,VWS V14.01,2013-05-28 19:44:00,
2013-05-28 15:49:00,58.7,54.5,30.20,West,281,0.0,0.0,86,0.07,,---,0.07,VWS V14.01,2013-05-28 19:49:00,
2013-05-28 15:54:00,58.6,54.8,30.20,West,281,0.0,0.0,87,0.08,,---,0.09,VWS V14.01,2013-05-28 19:54:00,
2013-05-28 16:00:00,58.3,54.5,30.20,West,281,0.0,0.0,87,0.08,,---,0.09,VWS V14.01,2013-05-28 20:00:00,
2013-05-28 16:05:00,58.1,54.6,30.20,West,281,0.0,0.0,88,0.09,,---,0.10,VWS V14.01,2013-05-28 20:05:00,
2013-05-28 16:10:00,58.0,54.5,30.20,West,281,0.0,0.0,88,0.09,,---,0.11,VWS V14.01,2013-05-28 20:10:00,
2013-05-28 16:15:00,57.8,54.6,30.20,West,281,0.0,0.0,89,0.09,,---,0.11,VWS V14.01,2013-05-28 20:15:00,
2013-05-28 16:20:00,57.8,54.6,30.20,West,281,0.0,0.0,89,0.08,,---,0.11,VWS V14.01,2013-05-28 20:20:00,
2013-05-28 16:26:00,57.5,54.3,30.20,West,281,0.0,0.0,89,0.09,,---,0.12,VWS V14.01,2013-05-28 20:26:00,
2013-05-28 16:32:00,57.3,54.1,30.20,West,281,0.0,0.0,89,0.09,,---,0.13,VWS V14.01,2013-05-28 20:32:00,
2013-05-28 16:37:00,57.3,54.4,30.20,West,281,0.0,0.0,90,0.08,,---,0.13,VWS V14.01,2013-05-28 20:37:00,
2013-05-28 16:43:00,57.3,54.4,30.20,West,281,0.0,0.0,90,0.08,,---,0.14,VWS V14.01,2013-05-28 20:43:00,
2013-05-28 16:48:00,57.3,54.7,30.20,West,281,0.0,0.0,91,0.07,,---,0.14,VWS V14.01,2013-05-28 20:48:00,
2013-05-28 16:53:00,57.3,54.7,30.20,West,281,0.0,0.0,91,0.06,,---,0.14,VWS V14.01,2013-05-28 20:53:00,
2013-05-28 16:59:00,57.0,54.4,30.20,West,281,0.0,0.0,91,0.05,,---,0.14,VWS V14.01,2013-05-28 20:59:00,
2013-05-28 17:05:00,56.9,54.3,30.20,West,281,0.0,0.0,91,0.04,,---,0.14,VWS V14.01,2013-05-28 21:05:00,
2013-05-28 17:10:00,56.7,54.1,30.20,West,281,0.0,0.0,91,0.03,,---,0.14,VWS V14.01,2013-05-28 21:10:00,
2013-05-28 17:15:00,56.7,54.1,30.19,West,281,0.0,0.0,91,0.03,,---,0.14,VWS V14.01,2013-05-28 21:15:00,
2013-05-28 17:20:00,56.7,54.4,30.18,West,281,0.0,0.0,92,0.04,,---,0.15,VWS V14.01,2013-05-28 21:20:00,
2013-05-28 17:25:00,56.7,54.4,30.18,West,281,0.0,0.0,92,0.03,,---,0.15,VWS V14.01,2013-05-28 21:25:00,
2013-05-28 17:30:00,56.7,54.4,30.18,West,281,0.0,0.0,92,0.03,,---,0.15,VWS V14.01,2013-05-28 21:30:00,
2013-05-28 17:36:00,56.6,54.3,30.19,West,281,0.0,0.0,92,0.02,,---,0.15,VWS V14.01,2013-05-28 21:36:00,
2013-05-28 17:41:00,56.6,54.3,30.19,West,281,0.0,0.0,92,0.02,,---,0.15,VWS V14.01,2013-05-28 21:41:00,
2013-05-28 17:47:00,56.6,54.3,30.19,West,281,0.0,0.0,92,0.01,,---,0.15,VWS V14.01,2013-05-28 21:47:00,
2013-05-28 17:52:00,56.5,54.2,30.19,West,281,0.0,0.0,92,0.01,,---,0.15,VWS V14.01,2013-05-28 21:52:00,
2013-05-28 17:58:00,56.5,54.5,30.18,West,281,0.0,0.0,93,0.01,,---,0.15,VWS V14.01,2013-05-28 21:58:00,
2013-05-28 18:03:00,56.5,54.5,30.18,West,281,0.0,0.0,93,0.01,,---,0.15,VWS V14.01,2013-05-28 22:03:00,
2013-05-28 18:08:00,56.3,54.0,30.18,West,281,0.0,0.0,92,0.01,,---,0.15,VWS V14.01,2013-05-28 22:08:00,
2013-05-28 18:13:00,56.2,54.2,30.18,West,281,0.0,0.0,93,0.01,,---,0.15,VWS V14.01,2013-05-28 22:13:00,
2013-05-28 18:19:00,56.0,54.0,30.17,West,281,0.0,0.0,93,0.00,,---,0.15,VWS V14.01,2013-05-28 22:19:00,
2013-05-28 18:24:00,56.0,54.0,30.17,West,281,0.0,0.0,93,0.00,,---,0.15,VWS V14.01,2013-05-28 22:24:00,
2013-05-28 18:29:00,56.2,54.2,30.17,West,281,0.0,0.0,93,0.00,,---,0.15,VWS V14.01,2013-05-28 22:29:00,
2013-05-28 18:34:00,56.2,54.2,30.17,West,281,0.0,0.0,93,0.00,,---,0.15,VWS V14.01,2013-05-28 22:34:00,
2013-05-28 18:39:00,56.2,54.2,30.17,West,281,0.0,0.0,93,0.00,,---,0.15,VWS V14.01,2013-05-28 22:39:00,
2013-05-28 18:45:00,56.0,54.0,30.17,West,281,0.0,0.0,93,0.01,,---,0.16,VWS V14.01,2013-05-28 22:45:00,
2013-05-28 18:51:00,55.9,53.9,30.17,NE,44,0.0,0.0,93,0.01,,---,0.16,VWS V14.01,2013-05-28 22:51:00,
2013-05-28 18:56:00,55.9,53.9,30.17,NE,44,0.0,0.0,93,0.01,,---,0.16,VWS V14.01,2013-05-28 22:56:00,
2013-05-28 19:01:00,55.9,53.9,30.17,NE,44,0.0,0.0,93,0.01,,---,0.16,VWS V14.01,2013-05-28 23:01:00,
2013-05-28 19:06:00,55.9,54.2,30.17,NE,44,0.0,0.0,94,0.01,,---,0.16,VWS V14.01,2013-05-28 23:06:00,
2013-05-28 19:11:00,55.7,54.0,30.17,NE,44,0.0,0.0,94,0.01,,---,0.16,VWS V14.01,2013-05-28 23:11:00,
2013-05-28 19:16:00,55.7,54.0,30.17,NE,44,0.0,0.0,94,0.01,,---,0.16,VWS V14.01,2013-05-28 23:16:00,
2013-05-28 19:22:00,55.7,54.0,30.17,NE,51,0.0,0.0,94,0.01,,---,0.16,VWS V14.01,2013-05-28 23:22:00,
2013-05-28 19:27:00,55.7,54.0,30.17,NE,51,0.0,0.0,94,0.01,,---,0.16,VWS V14.01,2013-05-28 23:27:00,
2013-05-28 19:32:00,55.7,54.0,30.17,NE,51,0.0,0.0,94,0.01,,---,0.16,VWS V14.01,2013-05-28 23:32:00,
2013-05-28 19:38:00,55.6,53.9,30.17,NE,53,0.0,0.0,94,0.02,,---,0.17,VWS V14.01,2013-05-28 23:38:00,
2013-05-28 19:43:00,55.7,54.0,30.17,NE,53,0.0,0.0,94,0.02,,---,0.17,VWS V14.01,2013-05-28 23:43:00,
2013-05-28 19:48:00,55.7,54.0,30.17,NE,53,0.0,0.0,94,0.01,,---,0.17,VWS V14.01,2013-05-28 23:48:00,
2013-05-28 19:53:00,55.7,54.0,30.16,NE,53,0.0,0.0,94,0.01,,---,0.17,VWS V14.01,2013-05-28 23:53:00,
2013-05-28 19:58:00,55.7,54.0,30.16,NE,53,0.0,0.0,94,0.01,,---,0.17,VWS V14.01,2013-05-28 23:58:00,
2013-05-28 20:03:00,55.7,54.3,30.16,NE,53,0.0,0.0,95,0.01,,---,0.17,VWS V14.01,2013-05-29 00:03:00,
2013-05-28 20:09:00,55.7,54.3,30.15,NE,53,0.0,0.0,95,0.01,,---,0.17,VWS V14.01,2013-05-29 00:09:00,
2013-05-28 20:14:00,55.6,54.2,30.15,NE,53,0.0,0.0,95,0.01,,---,0.17,VWS V14.01,2013-05-29 00:14:00,
2013-05-28 20:20:00,55.6,54.2,30.15,ENE,68,0.0,1.0,95,0.01,,---,0.17,VWS V14.01,2013-05-29 00:20:00,
2013-05-28 20:25:00,55.6,54.2,30.15,ENE,68,0.0,0.0,95,0.01,,---,0.17,VWS V14.01,2013-05-29 00:25:00,
2013-05-28 20:30:00,55.6,54.2,30.15,ENE,68,0.0,0.0,95,0.01,,---,0.17,VWS V14.01,2013-05-29 00:30:00,
2013-05-28 20:35:00,55.6,54.2,30.15,ENE,69,0.0,0.0,95,0.01,,---,0.17,VWS V14.01,2013-05-29 00:35:00,
2013-05-28 20:40:00,55.7,54.3,30.15,ENE,69,0.0,0.0,95,0.00,,---,0.17,VWS V14.01,2013-05-29 00:40:00,
2013-05-28 20:45:00,55.7,54.3,30.15,ENE,69,0.0,0.0,95,0.00,,---,0.17,VWS V14.01,2013-05-29 00:45:00,
2013-05-28 20:50:00,55.7,54.3,30.14,ENE,69,0.0,0.0,95,0.00,,---,0.17,VWS V14.01,2013-05-29 00:50:00,
2013-05-28 20:55:00,55.7,54.3,30.14,ENE,69,0.0,0.0,95,0.00,,---,0.17,VWS V14.01,2013-05-29 00:55:00,
2013-05-28 21:00:00,55.9,54.8,30.15,ENE,69,0.0,0.0,96,0.00,,---,0.17,VWS V14.01,2013-05-29 01:00:00,
2013-05-28 21:05:00,55.9,54.8,30.15,ENE,69,0.0,0.0,96,0.00,,---,0.17,VWS V14.01,2013-05-29 01:05:00,
2013-05-28 21:10:00,55.9,54.8,30.14,ENE,69,0.0,0.0,96,0.00,,---,0.17,VWS V14.01,2013-05-29 01:10:00,
2013-05-28 21:15:00,56.0,54.9,30.14,East,86,0.0,0.0,96,0.00,,---,0.17,VWS V14.01,2013-05-29 01:15:00,
2013-05-28 21:20:00,56.0,54.9,30.14,East,86,0.0,0.0,96,0.00,,---,0.17,VWS V14.01,2013-05-29 01:20:00,
2013-05-28 21:25:00,56.2,55.1,30.15,East,86,0.0,0.0,96,0.00,,---,0.17,VWS V14.01,2013-05-29 01:25:00,
2013-05-28 21:31:00,56.2,55.1,30.15,East,86,0.0,0.0,96,0.00,,---,0.17,VWS V14.01,2013-05-29 01:31:00,
2013-05-28 21:36:00,56.3,55.2,30.15,SE,136,0.0,0.0,96,0.00,,---,0.17,VWS V14.01,2013-05-29 01:36:00,
2013-05-28 21:41:00,56.3,55.2,30.15,SE,136,0.0,0.0,96,0.00,,---,0.17,VWS V14.01,2013-05-29 01:41:00,
2013-05-28 21:46:00,56.5,55.4,30.16,SE,136,0.0,0.0,96,0.00,,---,0.17,VWS V14.01,2013-05-29 01:46:00,
2013-05-28 21:51:00,56.5,55.4,30.15,SE,136,0.0,0.0,96,0.00,,---,0.17,VWS V14.01,2013-05-29 01:51:00,
2013-05-28 21:56:00,56.5,55.4,30.15,SE,136,0.0,0.0,96,0.00,,---,0.17,VWS V14.01,2013-05-29 01:56:00,
2013-05-28 22:02:00,56.6,55.5,30.15,SE,136,0.0,0.0,96,0.00,,---,0.17,VWS V14.01,2013-05-29 02:02:00,
2013-05-28 22:07:00,56.6,55.5,30.15,SE,136,0.0,0.0,96,0.00,,---,0.17,VWS V14.01,2013-05-29 02:07:00,
2013-05-28 22:12:00,56.6,55.5,30.15,SE,136,0.0,0.0,96,0.00,,---,0.17,VWS V14.01,2013-05-29 02:12:00,
2013-05-28 22:17:00,56.6,55.5,30.15,SE,136,0.0,0.0,96,0.00,,---,0.17,VWS V14.01,2013-05-29 02:17:00,
2013-05-28 22:22:00,56.6,55.5,30.15,SE,136,0.0,0.0,96,0.00,,---,0.17,VWS V14.01,2013-05-29 02:22:00,
2013-05-28 22:27:00,56.6,55.5,30.15,SE,136,0.0,0.0,96,0.00,,---,0.17,VWS V14.01,2013-05-29 02:27:00,
2013-05-28 22:33:00,56.6,55.5,30.15,SE,136,0.0,0.0,96,0.00,,---,0.17,VWS V14.01,2013-05-29 02:33:00,
2013-05-28 22:38:00,56.7,55.6,30.15,SE,136,0.0,0.0,96,0.00,,---,0.17,VWS V14.01,2013-05-29 02:38:00,
2013-05-28 22:43:00,56.7,55.6,30.15,SE,136,0.0,0.0,96,0.00,,---,0.17,VWS V14.01,2013-05-29 02:43:00,
2013-05-28 22:48:00,56.7,55.6,30.14,SE,136,0.0,2.0,96,0.00,,---,0.17,VWS V14.01,2013-05-29 02:48:00,
2013-05-28 22:53:00,56.7,55.6,30.14,SE,136,0.0,0.0,96,0.01,,---,0.18,VWS V14.01,2013-05-29 02:53:00,
2013-05-28 22:58:00,56.7,55.6,30.14,SE,136,0.0,0.0,96,0.01,,---,0.18,VWS V14.01,2013-05-29 02:58:00,
2013-05-28 23:03:00,56.6,55.5,30.14,SE,136,0.0,0.0,96,0.01,,---,0.18,VWS V14.01,2013-05-29 03:03:00,
2013-05-28 23:09:00,56.6,55.5,30.14,SE,136,0.0,0.0,96,0.01,,---,0.18,VWS V14.01,2013-05-29 03:09:00,
2013-05-28 23:15:00,56.6,55.5,30.15,NE,48,0.0,0.0,96,0.01,,---,0.18,VWS V14.01,2013-05-29 03:15:00,
2013-05-28 23:20:00,56.6,55.5,30.15,NE,48,0.0,0.0,96,0.01,,---,0.18,VWS V14.01,2013-05-29 03:20:00,
2013-05-28 23:25:00,56.6,55.5,30.14,NE,48,0.0,0.0,96,0.01,,---,0.18,VWS V14.01,2013-05-29 03:25:00,
2013-05-28 23:30:00,56.7,55.6,30.14,NE,48,0.0,0.0,96,0.01,,---,0.18,VWS V14.01,2013-05-29 03:30:00,
2013-05-28 23:35:00,56.6,55.5,30.15,NNW,337,0.0,0.0,96,0.01,,---,0.18,VWS V14.01,2013-05-29 03:35:00,
2013-05-28 23:41:00,56.6,55.5,30.14,NNW,337,0.0,0.0,96,0.02,,---,0.19,VWS V14.01,2013-05-29 03:41:00,
2013-05-28 23:46:00,56.6,55.5,30.14,NNW,337,0.0,0.0,96,0.02,,---,0.19,VWS V14.01,2013-05-29 03:46:00,
2013-05-28 23:51:00,56.6,55.5,30.14,SSE,159,0.0,1.0,96,0.02,,---,0.19,VWS V14.01,2013-05-29 03:51:00,
2013-05-28 23:56:00,56.6,55.5,30.15,SSE,159,0.0,0.0,96,0.01,,---,0.19,VWS V14.01,2013-05-29 03:56:00,